| time (UTC) | temp F | wind direction | speed MPH | gust MPH | rain 1hr in | rain 24hr in | rain mn in | humidity % | barometer mb |
| 20260505005636 | 67 | 183 | 0.0 | 200.0 | 0.00 | 0.00 | 0.00 | 59 | 628.2 |
| 20260505005136 | 67 | 149 | 0.0 | 200.0 | 0.00 | 0.00 | 0.00 | 59 | 619.8 |
| 20260505004635 | 67 | 126 | 0.0 | 200.0 | 0.00 | 0.00 | 0.00 | 58 | 639.4 |
| 20260505004134 | 68 | 157 | 0.0 | 200.0 | 0.00 | 0.00 | 0.00 | 57 | 653.1 |
| 20260505003633 | 68 | 163 | 0.0 | 200.0 | 0.00 | 0.00 | 0.00 | 56 | 681.7 |
| 20260505003131 | 68 | 182 | 0.0 | 200.0 | 0.00 | 0.00 | 0.00 | 56 | 689.4 |
| 20260505002631 | 68 | 164 | 0.0 | 200.0 | 0.00 | 0.00 | 0.00 | 55 | 680.0 |
| 20260505002130 | 68 | 168 | 0.0 | 200.0 | 0.00 | 0.00 | 0.00 | 55 | 672.2 |
| 20260505001128 | 68 | 183 | 0.0 | 200.0 | 0.00 | 0.00 | 0.00 | 54 | 672.0 |
| 20260505000628 | 68 | 151 | 0.0 | 200.0 | 0.00 | 0.00 | 0.00 | 53 | 648.1 |
| 20260505000126 | 68 | 156 | 0.0 | 200.0 | 0.00 | 0.00 | 0.00 | 53 | 669.1 |
| 20260504235119 | 69 | 143 | 0.0 | 200.0 | 0.00 | 0.00 | 0.00 | 52 | 651.5 |
| 20260504233607 | 69 | 164 | 0.0 | 200.0 | 0.00 | 0.00 | 0.00 | 51 | 654.9 |
| 20260504233106 | 70 | 178 | 0.0 | 200.0 | 0.00 | 0.00 | 0.00 | 51 | 673.8 |
| 20260504232605 | 70 | 162 | 0.0 | 200.0 | 0.00 | 0.00 | 0.00 | 50 | 657.8 |
| 20260504232105 | 70 | 148 | 0.0 | 200.0 | 0.00 | 0.00 | 0.00 | 50 | 684.6 |
| 20260504231604 | 70 | 181 | 0.0 | 200.0 | 0.00 | 0.00 | 0.00 | 50 | 681.3 |
| 20260504231104 | 71 | 169 | 0.0 | 200.0 | 0.00 | 0.00 | 0.00 | 49 | 671.3 |
| 20260504230603 | 71 | 217 | 0.0 | 200.0 | 0.00 | 0.00 | 0.00 | 48 | 693.4 |
| 20260504225601 | 71 | 180 | 0.0 | 200.0 | 0.00 | 0.00 | 0.00 | 48 | 654.2 |
| 20260504225100 | 71 | 212 | 0.0 | 200.0 | 0.00 | 0.00 | 0.00 | 47 | 642.6 |
| 20260504224043 | 71 | 192 | 0.0 | 200.0 | 0.00 | 0.00 | 0.00 | 49 | 665.5 |
| 20260504223542 | 71 | 173 | 0.0 | 200.0 | 0.00 | 0.00 | 0.00 | 49 | 637.7 |
| 20260504221503 | 71 | 190 | 0.0 | 200.0 | 0.00 | 0.00 | 0.00 | 50 | 637.0 |
| 20260504221003 | 71 | 168 | 0.0 | 200.0 | 0.00 | 0.00 | 0.00 | 50 | 606.4 |
| 20260504220502 | 71 | 126 | 0.0 | 200.0 | 0.00 | 0.00 | 0.00 | 51 | 588.8 |
| 20260504220002 | 71 | 119 | 0.0 | 200.0 | 0.00 | 0.00 | 0.00 | 50 | 591.8 |
| 20260504214955 | 71 | 129 | 0.0 | 200.0 | 0.00 | 0.00 | 0.00 | 50 | 566.9 |
| 20260504214454 | 71 | 158 | 0.0 | 200.0 | 0.00 | 0.00 | 0.00 | 52 | 588.5 |
| 20260504213954 | 71 | 151 | 0.0 | 200.0 | 0.00 | 0.00 | 0.00 | 52 | 583.8 |
| 20260504213453 | 71 | 158 | 0.0 | 200.0 | 0.00 | 0.00 | 0.00 | 52 | 566.2 |
| 20260504212952 | 71 | 55 | 0.0 | 200.0 | 0.00 | 0.00 | 0.00 | 51 | 569.6 |
| 20260504212451 | 71 | 134 | 0.0 | 200.0 | 0.00 | 0.00 | 0.00 | 51 | 543.0 |
| 20260504211951 | 71 | 155 | 0.0 | 200.0 | 0.00 | 0.00 | 0.00 | 49 | 552.3 |
| 20260504210935 | 72 | 62 | 0.0 | 200.0 | 0.00 | 0.00 | 0.00 | 50 | 492.2 |
| 20260504210434 | 72 | 101 | 0.0 | 200.0 | 0.00 | 0.00 | 0.00 | 49 | 561.5 |
| 20260504205933 | 72 | 129 | 0.0 | 200.0 | 0.00 | 0.00 | 0.00 | 50 | 565.4 |
| 20260504205432 | 72 | 125 | 0.0 | 200.0 | 0.00 | 0.00 | 0.00 | 49 | 531.8 |
| 20260504204931 | 73 | 135 | 0.0 | 200.0 | 0.00 | 0.00 | 0.00 | 48 | 578.8 |
| 20260504204430 | 73 | 142 | 0.0 | 200.0 | 0.00 | 0.00 | 0.00 | 48 | 619.8 |
| 20260504203413 | 73 | 183 | 0.0 | 200.0 | 0.00 | 0.00 | 0.00 | 46 | 639.9 |
| 20260504202912 | 73 | 103 | 0.0 | 200.0 | 0.00 | 0.00 | 0.00 | 45 | 579.1 |
| 20260504202411 | 73 | 195 | 0.0 | 200.0 | 0.00 | 0.00 | 0.00 | 45 | 618.3 |
| 20260504201910 | 72 | 97 | 0.0 | 200.0 | 0.00 | 0.00 | 0.00 | 44 | 527.3 |
| 20260504200854 | 72 | 126 | 0.0 | 200.0 | 0.00 | 0.00 | 0.00 | 45 | 586.3 |
| 20260504195331 | 72 | 123 | 0.0 | 200.0 | 0.00 | 0.00 | 0.00 | 43 | 520.0 |
| 20260504194314 | 72 | 110 | 0.0 | 200.0 | 0.00 | 0.00 | 0.00 | 44 | 497.4 |
| 20260504193814 | 72 | 120 | 0.0 | 200.0 | 0.00 | 0.00 | 0.00 | 42 | 530.3 |
| 20260504193313 | 73 | 109 | 0.0 | 200.0 | 0.00 | 0.00 | 0.00 | 41 | 551.1 |
| 20260504192812 | 74 | 157 | 0.0 | 200.0 | 0.00 | 0.00 | 0.00 | 45 | 603.2 |
| 20260504192311 | 73 | 156 | 0.0 | 200.0 | 0.00 | 0.00 | 0.00 | 43 | 573.2 |
| 20260504191811 | 73 | 88 | 0.0 | 200.0 | 0.00 | 0.00 | 0.00 | 42 | 562.3 |
| 20260504190754 | 73 | 110 | 0.0 | 200.0 | 0.00 | 0.00 | 0.00 | 42 | 568.6 |
| 20260504190253 | 73 | 194 | 0.0 | 200.0 | 0.00 | 0.00 | 0.00 | 45 | 634.5 |
| 20260504185752 | 72 | 150 | 0.0 | 200.0 | 0.00 | 0.00 | 0.00 | 42 | 563.8 |
| 20260504185251 | 71 | 83 | 0.0 | 200.0 | 0.00 | 0.00 | 0.00 | 42 | 500.4 |
| 20260504184750 | 71 | 125 | 0.0 | 200.0 | 0.00 | 0.00 | 0.00 | 42 | 502.3 |
| 20260504184249 | 71 | 93 | 0.0 | 200.0 | 0.00 | 0.00 | 0.00 | 41 | 475.8 |
| 20260504183748 | 71 | 106 | 0.0 | 200.0 | 0.00 | 0.00 | 0.00 | 41 | 529.2 |
| 20260504183247 | 70 | 123 | 0.0 | 200.0 | 0.00 | 0.00 | 0.00 | 44 | 500.8 |
| 20260504182745 | 70 | 96 | 0.0 | 200.0 | 0.00 | 0.00 | 0.00 | 44 | 473.8 |
| 20260504182244 | 70 | 95 | 0.0 | 200.0 | 0.00 | 0.00 | 0.00 | 44 | 511.4 |
| 20260504181237 | 70 | 95 | 0.0 | 200.0 | 0.00 | 0.00 | 0.00 | 43 | 512.1 |
| 20260504180220 | 70 | 133 | 0.0 | 200.0 | 0.00 | 0.00 | 0.00 | 42 | 516.4 |
| 20260504175719 | 70 | 115 | 0.0 | 200.0 | 0.00 | 0.00 | 0.00 | 43 | 491.2 |
| 20260504175218 | 70 | 110 | 0.0 | 200.0 | 0.00 | 0.00 | 0.00 | 40 | 484.5 |
| 20260504174717 | 70 | 100 | 0.0 | 200.0 | 0.00 | 0.00 | 0.00 | 41 | 467.6 |
| 20260504174216 | 70 | 101 | 0.0 | 200.0 | 0.00 | 0.00 | 0.00 | 42 | 497.0 |
| 20260504173715 | 70 | 111 | 0.0 | 200.0 | 0.00 | 0.00 | 0.00 | 43 | 532.0 |
| 20260504173214 | 70 | 108 | 0.0 | 200.0 | 0.00 | 0.00 | 0.00 | 43 | 528.8 |
| 20260504172714 | 70 | 146 | 0.0 | 200.0 | 0.00 | 0.00 | 0.00 | 42 | 555.8 |
| 20260504171707 | 70 | 96 | 0.0 | 200.0 | 0.00 | 0.00 | 0.00 | 42 | 507.7 |
| 20260504171207 | 70 | 146 | 0.0 | 200.0 | 0.00 | 0.00 | 0.00 | 40 | 574.0 |
| 20260504170705 | 70 | 93 | 0.0 | 200.0 | 0.00 | 0.00 | 0.00 | 46 | 503.4 |
| 20260504170204 | 69 | 110 | 0.0 | 200.0 | 0.00 | 0.00 | 0.00 | 47 | 467.6 |
| 20260504151016 | 64 | 123 | 0.0 | 200.0 | 0.00 | 0.00 | 0.00 | 51 | 492.3 |
| 20260504140846 | 60 | 197 | 0.0 | 200.0 | 0.00 | 0.00 | 0.00 | 54 | 668.5 |
| 20260504130745 | 57 | 208 | 0.0 | 200.0 | 0.00 | 0.00 | 0.00 | 56 | 778.2 |
| 20260504130244 | 57 | 188 | 0.0 | 200.0 | 0.00 | 0.00 | 0.00 | 57 | 749.6 |
| 20260504120202 | 53 | 194 | 0.0 | 200.0 | 0.00 | 0.00 | 0.00 | 67 | 719.4 |
| 20260504110115 | 48 | 245 | 0.0 | 200.0 | 0.00 | 0.00 | 0.00 | 82 | 872.3 |
| 20260504100544 | 47 | 240 | 0.0 | 200.0 | 0.00 | 0.00 | 0.00 | 81 | 867.1 |
| 20260504081512 | 48 | 240 | 0.0 | 200.0 | 0.00 | 0.00 | 0.00 | 76 | 865.7 |
| 20260504081011 | 49 | 240 | 0.0 | 200.0 | 0.00 | 0.00 | 0.00 | 76 | 864.5 |
| 20260504050752 | 47 | 235 | 0.0 | 200.0 | 0.00 | 0.00 | 0.00 | 79 | 818.2 |
| 20260504050251 | 47 | 214 | 0.0 | 200.0 | 0.00 | 0.00 | 0.00 | 78 | 806.7 |
| 20260504045750 | 47 | 211 | 0.0 | 200.0 | 0.00 | 0.00 | 0.00 | 78 | 823.5 |
| 20260504045249 | 47 | 241 | 0.0 | 200.0 | 0.00 | 0.00 | 0.00 | 77 | 858.8 |
| 20260504044748 | 47 | 233 | 0.0 | 200.0 | 0.00 | 0.00 | 0.00 | 76 | 855.2 |
| 20260504043731 | 47 | 242 | 0.0 | 200.0 | 0.00 | 0.00 | 0.00 | 76 | 873.6 |
| 20260504042724 | 47 | 243 | 0.0 | 200.0 | 0.00 | 0.00 | 0.00 | 76 | 872.6 |
| 20260504042223 | 47 | 233 | 0.0 | 200.0 | 0.00 | 0.00 | 0.00 | 76 | 858.6 |
| 20260504041722 | 47 | 247 | 0.0 | 200.0 | 0.00 | 0.00 | 0.00 | 75 | 854.2 |
| 20260504041221 | 47 | 226 | 0.0 | 200.0 | 0.00 | 0.00 | 0.00 | 75 | 838.6 |
| 20260504040719 | 47 | 227 | 0.0 | 200.0 | 0.00 | 0.00 | 0.00 | 74 | 850.5 |
| 20260504040218 | 48 | 238 | 0.0 | 200.0 | 0.00 | 0.00 | 0.00 | 74 | 859.3 |
| 20260504035717 | 48 | 238 | 0.0 | 200.0 | 0.00 | 0.00 | 0.00 | 72 | 857.2 |
| 20260504034155 | 48 | 236 | 0.0 | 200.0 | 0.00 | 0.00 | 0.00 | 71 | 854.3 |
| 20260504033148 | 49 | 236 | 0.0 | 200.0 | 0.00 | 0.00 | 0.00 | 70 | 854.5 |
| 20260504031625 | 49 | 236 | 0.0 | 200.0 | 0.00 | 0.00 | 0.00 | 68 | 854.4 |
| 20260504025602 | 50 | 236 | 0.0 | 200.0 | 0.00 | 0.00 | 0.00 | 67 | 854.3 |
| 20260504025101 | 50 | 236 | 0.0 | 200.0 | 0.00 | 0.00 | 0.00 | 67 | 854.2 |
| 20260504024601 | 50 | 236 | 0.0 | 200.0 | 0.00 | 0.00 | 0.00 | 67 | 854.2 |
| 20260504023549 | 50 | 236 | 0.0 | 200.0 | 0.00 | 0.00 | 0.00 | 65 | 854.3 |
| 20260504023048 | 51 | 236 | 0.0 | 200.0 | 0.00 | 0.00 | 0.00 | 64 | 854.4 |
| 20260504022547 | 51 | 236 | 0.0 | 200.0 | 0.00 | 0.00 | 0.00 | 63 | 854.4 |
| 20260504022046 | 51 | 236 | 0.0 | 200.0 | 0.00 | 0.00 | 0.00 | 63 | 854.1 |
| 20260504021545 | 51 | 236 | 0.0 | 200.0 | 0.00 | 0.00 | 0.00 | 63 | 854.3 |
| 20260504021044 | 51 | 236 | 0.0 | 200.0 | 0.00 | 0.00 | 0.00 | 61 | 854.3 |
| 20260504020543 | 52 | 236 | 0.0 | 200.0 | 0.00 | 0.00 | 0.00 | 59 | 854.2 |
| 20260504020042 | 52 | 236 | 0.0 | 200.0 | 0.00 | 0.00 | 0.00 | 58 | 854.2 |
| 20260504015542 | 52 | 236 | 0.0 | 200.0 | 0.00 | 0.00 | 0.00 | 57 | 854.1 |
| 20260504014527 | 52 | 236 | 0.0 | 200.0 | 0.00 | 0.00 | 0.00 | 57 | 853.8 |
| 20260504014026 | 53 | 236 | 0.0 | 200.0 | 0.00 | 0.00 | 0.00 | 56 | 853.6 |
| 20260504013525 | 53 | 236 | 0.0 | 200.0 | 0.00 | 0.00 | 0.00 | 54 | 853.8 |
| 20260504013024 | 53 | 236 | 0.0 | 200.0 | 0.00 | 0.00 | 0.00 | 52 | 853.9 |
| 20260504012523 | 54 | 236 | 0.0 | 200.0 | 0.00 | 0.00 | 0.00 | 53 | 854.0 |
| 20260504011517 | 54 | 236 | 0.0 | 200.0 | 0.00 | 0.00 | 0.00 | 52 | 854.0 |
| 20260504010501 | 55 | 236 | 0.0 | 200.0 | 0.00 | 0.00 | 0.00 | 50 | 855.2 |